This is the latest recevied weather packets stored in our database for station/object KC6OYN. If no packets are shown the sender has not sent any weather packets the latest 10 day(s).
| Time | Temp. | Humidity | Pressure | Rain* | Wind** | Luminosity | Snow |
|---|---|---|---|---|---|---|---|
| 1777921665 | 17.22° C | 70% | 1024.9 hPa | 0 mm | - | - | - |
| 1777921424 | 16.67° C | 70% | 1024.9 hPa | 0 mm | - | - | - |
| 1777921183 | 16.11° C | 71% | 1024.9 hPa | 0 mm | - | - | - |
| 1777920942 | 15.56° C | 71% | 1024.8 hPa | 0 mm | - | - | - |
| 1777920701 | 15° C | 71% | 1024.8 hPa | 0 mm | - | - | - |
| 1777920460 | 14.44° C | 71% | 1024.8 hPa | 0 mm | - | - | - |
| 1777920219 | 13.89° C | 70% | 1024.6 hPa | 0 mm | - | - | - |
| 1777919978 | 13.89° C | 70% | 1024.7 hPa | 0 mm | - | - | - |
| 1777919737 | 13.89° C | 69% | 1024.7 hPa | 0 mm | - | - | - |
| 1777919496 | 13.89° C | 69% | 1024.8 hPa | 0 mm | - | - | - |
| 1777919255 | 13.89° C | 69% | 1024.8 hPa | 0 mm | - | - | - |
| 1777919014 | 13.89° C | 69% | 1024.8 hPa | 0 mm | - | - | - |
| 1777918773 | 13.89° C | 70% | 1024.7 hPa | 0 mm | - | - | - |
| 1777918533 | 14.44° C | 70% | 1024.8 hPa | 0 mm | - | - | - |
| 1777918292 | 13.89° C | 70% | 1024.8 hPa | 0 mm | - | - | - |
| 1777918051 | 13.89° C | 70% | 1024.7 hPa | 0 mm | - | - | - |
| 1777917810 | 13.89° C | 70% | 1024.7 hPa | 0 mm | - | - | - |
| 1777917569 | 13.89° C | 70% | 1024.8 hPa | 0 mm | - | - | - |
| 1777917328 | 13.89° C | 70% | 1024.7 hPa | 0 mm | - | - | - |
| 1777917087 | 13.89° C | 70% | 1024.6 hPa | 0 mm | - | - | - |
| 1777916846 | 13.89° C | 70% | 1024.6 hPa | 0 mm | - | - | - |
| 1777916605 | 14.44° C | 70% | 1024.7 hPa | 0 mm | - | - | - |
| 1777916365 | 13.89° C | 71% | 1024.6 hPa | 0 mm | - | - | - |
| 1777916124 | 14.44° C | 71% | 1024.7 hPa | 0 mm | - | - | - |
| 1777915883 | 14.44° C | 71% | 1024.6 hPa | 0 mm | - | - | - |
* Rain since midnight (hover to see other rain measurements)
** Current wind speed in m/s (hover to see current wind gust speed)